Weather History for KEVV - May, 2013

Change the Weather History Date:

Friday, May 17, 2013

  Actual Average Record
Temperature  
Mean Temperature 69 °F 66 °F  
Max Temperature 74 °F 77 °F 95 °F (1962)
Min Temperature 64 °F 55 °F 41 °F (1973)
Degree Days  
Heating Degree Days 0 3  
Month to date heating degree days 64 64  
Since 1 July heating degree days 4512 4519  
Cooling Degree Days 4 4  
Month to date cooling degree days 36 39  
Year to date cooling degree days 70 66  
Growing Degree Days 18 (Base 50)    
Moisture  
Dew Point 62 °F    
Average Humidity 83    
Maximum Humidity 93    
Minimum Humidity 73    
Precipitation  
Precipitation 0.04 in 0.16 in 4.92 in (1995)
Month to date precipitation 2.59 2.97  
Year to date precipitation 20.06 17.85  
Snow  
Snow 0.00 in 0.00 in 0.00 in (2002)
Month to date snowfall 0.0 0.0  
Since 1 July snowfall 12.3 11.8  
Snow Depth 0.00 in    
Sea Level Pressure  
Sea Level Pressure 30.00 in    
Wind  
Wind Speed 4 mph (SE)    
Max Wind Speed 15 mph    
Max Gust Speed 20 mph    
Visibility 8 miles    
Events Rain    
T = Trace of Precipitation, MM = Missing Value Source: NWS Daily Summary

Daily Weather History Graph

Daily Weather History Graph

Search for Another Location

Airport or City:

Trip Planner

Search our weather history database for the weather conditions in past years. The results will help you decide how hot, cold, wet, or windy it might be!

Date:

Astronomy

May. 17, 2013 Rise Set
Actual Time 5:37 AM CDT 7:55 PM CDT
Civil Twilight 5:08 AM CDT 8:25 PM CDT
Nautical Twilight 4:31 AM CDT 9:02 PM CDT
Astronomical Twilight 3:51 AM CDT 9:42 PM CDT
Moon 12:07 PM CDT (5/17) 12:50 AM CDT (5/17)
Length of Visible Light 15h 17m
Length of Day
14h 17m
Waxing Crescent, 45% of the Moon is Illuminated
May 17
Waxing Crescent
May 17
First Quarter
May 24
Full
May 31
Last Quarter
Jun 8
New

Hourly Weather History & Observations

Time (CDT) Temp. Dew Point Humidity Pressure Visibility Wind Dir Wind Speed Gust Speed Precip Events Conditions
12:54 AM 66.9 °F 63.0 °F 87% 29.97 in 8.0 mi Calm Calm - N/A   Mostly Cloudy
1:54 AM 66.9 °F 63.0 °F 87% 29.97 in 9.0 mi East 4.6 mph - N/A   Overcast
2:54 AM 66.0 °F 61.0 °F 84% 29.98 in 10.0 mi East 3.5 mph - 0.01 in   Overcast
3:54 AM 64.9 °F 62.1 °F 90% 29.98 in 8.0 mi ENE 4.6 mph - N/A   Overcast
4:54 AM 64.9 °F 62.1 °F 90% 29.98 in 7.0 mi Calm Calm - N/A   Mostly Cloudy
5:54 AM 64.0 °F 61.0 °F 90% 29.99 in 1.5 mi Calm Calm - N/A   Scattered Clouds
6:01 AM 64.4 °F 60.8 °F 88% 29.99 in 6.0 mi Calm Calm - N/A   Scattered Clouds
6:54 AM 66.2 °F 62.6 °F 88% 30.00 in 7.0 mi Calm Calm - N/A   Partly Cloudy
7:54 AM 68.0 °F 61.0 °F 78% 30.00 in 10.0 mi SE 5.8 mph - N/A   Mostly Cloudy
8:54 AM 70.0 °F 61.0 °F 73% 30.01 in 10.0 mi SE 4.6 mph - N/A   Overcast
9:54 AM 70.0 °F 61.0 °F 73% 30.03 in 10.0 mi South 4.6 mph - 0.00 in Rain Light Rain
10:54 AM 72.0 °F 62.1 °F 71% 30.03 in 10.0 mi SSE 4.6 mph - 0.00 in   Scattered Clouds
11:54 AM 70.0 °F 63.0 °F 78% 30.03 in 9.0 mi SE 6.9 mph - 0.00 in Rain Light Rain
12:54 PM 70.0 °F 64.0 °F 81% 30.03 in 5.0 mi Calm Calm - 0.01 in Rain Rain
1:54 PM 69.8 °F 62.6 °F 78% 30.03 in 6.0 mi SE 6.9 mph - N/A Rain Light Rain
2:54 PM 70.0 °F 63.0 °F 78% 30.00 in 8.0 mi SE 8.1 mph - 0.00 in   Overcast
3:05 PM 69.8 °F 62.6 °F 78% 30.01 in 8.0 mi SE 9.2 mph - N/A   Overcast
3:37 PM 71.6 °F 62.6 °F 73% 30.00 in 9.0 mi SE 12.7 mph - N/A   Overcast
3:54 PM 72.0 °F 63.0 °F 73% 29.99 in 9.0 mi SSE 10.4 mph - N/A   Mostly Cloudy
4:16 PM 73.4 °F 62.6 °F 69% 29.99 in 9.0 mi SE 10.4 mph - N/A   Mostly Cloudy
4:54 PM 72.0 °F 63.0 °F 73% 29.98 in 10.0 mi ESE 8.1 mph - N/A   Overcast
5:04 PM 71.6 °F 62.6 °F 73% 29.99 in 10.0 mi SE 8.1 mph - N/A   Overcast
5:54 PM 71.1 °F 62.1 °F 73% 29.97 in 10.0 mi ESE 6.9 mph - N/A   Overcast
6:20 PM 71.6 °F 62.6 °F 73% 29.98 in 10.0 mi SE 8.1 mph - N/A   Overcast
6:54 PM 70.0 °F 62.1 °F 76% 29.98 in 10.0 mi SE 4.6 mph - N/A   Overcast
7:54 PM 70.0 °F 62.1 °F 76% 29.98 in 10.0 mi East 4.6 mph - N/A   Overcast
8:54 PM 70.0 °F 61.0 °F 73% 29.99 in 10.0 mi ESE 5.8 mph - N/A   Overcast
9:54 PM 66.9 °F 63.0 °F 87% 30.01 in 10.0 mi Calm Calm - 0.00 in   Overcast
10:54 PM 66.0 °F 63.0 °F 90% 30.01 in 7.0 mi Calm Calm - 0.02 in   Overcast
11:54 PM 66.0 °F 63.0 °F 90% 30.00 in 9.0 mi NE 4.6 mph - N/A   Overcast